PST,Max TemperatureF,Mean TemperatureF,Min TemperatureF,Max Dew PointF,MeanDew PointF,Min DewpointF,Max Humidity, Mean Humidity, Min Humidity, Max Sea Level PressureIn, Mean Sea Level PressureIn, Min Sea Level PressureIn, Max VisibilityMiles, Mean VisibilityMiles, Min VisibilityMiles, Max Wind SpeedMPH, Mean Wind SpeedMPH, Max Gust SpeedMPH,PrecipitationIn, CloudCover, Events, WindDirDegrees
2012-11-1,77,64,51,39,29,17,63,37,10,30.00,29.95,29.90,10,10,10,21,11,25,0.00,0,,256
2012-11-2,77,61,45,43,36,27,66,41,16,30.04,29.99,29.93,10,10,10,15,5,17,0.00,0,,292
2012-11-3,79,58,36,33,26,19,57,35,12,30.15,30.09,30.03,10,10,10,10,3,13,0.00,0,,332
2012-11-4,82,59,36,24,20,16,40,25,10,30.27,30.20,30.15,10,10,10,15,4,21,0.00,0,,353
2012-11-5,85,62,39,25,21,16,36,23,10,30.27,30.18,30.11,10,10,10,16,4,20,0.00,0,,350
2012-11-6,85,63,41,30,26,20,41,27,13,30.20,30.11,30.05,10,10,10,10,2,12,0.00,0,,269
2012-11-7,84,62,39,45,32,21,52,33,13,30.08,29.99,29.90,10,10,10,24,7,29,0.00,0,,230
2012-11-8,63,57,51,48,44,35,77,57,36,29.94,29.87,29.83,10,10,7,29,18,40,T,5,,250
2012-11-9,55,48,40,36,31,26,71,53,35,29.95,29.88,29.83,10,10,10,26,17,33,T,3,Rain-Thunderstorm,264
2012-11-10,52,44,36,29,24,18,70,50,30,30.19,30.07,29.95,10,10,10,31,17,37,0.00,0,,277
2012-11-11,56,41,25,20,15,7,68,44,19,30.44,30.35,30.20,10,10,10,18,6,22,0.00,0,,22
2012-11-12,60,40,19,9,5,2,50,30,10,30.47,30.37,30.27,10,10,10,15,6,17,0.00,0,,340
2012-11-13,66,43,19,7,2,-3,39,23,7,30.35,30.26,30.18,10,10,10,9,3,13,0.00,0,,314
2012-11-14,66,44,22,8,4,-4,32,21,9,30.28,30.19,30.13,10,9,0,9,2,10,0.00,0,,292
2012-11-15,60,48,35,36,14,5,41,28,15,30.21,30.14,30.09,10,10,5,12,2,13,T,3,Rain,267
2012-11-16,67,56,45,45,39,35,71,53,34,30.12,30.07,30.02,10,10,10,16,7,21,T,5,Rain,245
2012-11-17,65,56,47,49,46,42,83,68,52,30.10,30.06,30.02,10,10,8,20,9,24,T,5,Rain,254
2012-11-18,64,54,44,47,45,41,86,67,48,30.17,30.12,30.07,10,10,10,23,12,29,0.00,2,,251
2012-11-19,69,56,42,46,40,31,86,59,32,30.25,30.20,30.15,10,10,10,15,7,,0.00,1,,259
2012-11-20,70,51,32,37,32,25,76,52,28,30.25,30.15,30.06,10,10,10,10,2,13,0.00,0,,280
2012-11-21,72,54,36,41,35,29,70,48,25,30.14,30.08,30.04,10,10,10,28,13,33,0.00,0,,269
2012-11-22,72,56,39,41,34,23,85,54,22,30.26,30.17,30.08,10,10,8,13,6,,0.00,0,,354
2012-11-23,74,53,32,27,23,18,59,37,14,30.34,30.26,30.20,10,10,10,13,4,16,0.00,0,,2
2012-11-24,73,52,31,23,19,14,48,31,14,30.27,30.15,30.03,10,10,10,9,2,10,0.00,0,,278
2012-11-25,79,55,30,35,22,12,50,31,12,30.04,29.97,29.88,10,10,10,21,6,26,0.00,0,,259
2012-11-26,73,52,30,26,21,17,58,36,13,30.16,30.09,29.99,10,10,10,10,2,12,0.00,0,,306
2012-11-27,67,51,34,26,21,16,52,36,20,30.24,30.16,30.10,10,10,10,8,3,9,0.00,0,,302
2012-11-28,69,52,34,49,35,18,77,53,29,30.19,30.14,30.08,10,10,6,31,9,37,0.00,2,,264
2012-11-29,64,58,52,51,49,47,89,73,56,30.20,30.15,30.10,10,10,7,26,14,32,0.01,4,,259
2012-11-30,66,60,53,52,50,45,86,71,56,30.13,30.10,30.04,10,10,10,32,13,43,0.00,4,,262